Time,TemperatureF,DewpointF,PressureIn,WindDirection,WindDirectionDegrees,WindSpeedMPH,WindSpeedGustMPH,Humidity,HourlyPrecipIn,Conditions,Clouds,dailyrainin,SoftwareType,DateUTC
2013-07-29 00:01:00,79.9,58.5,29.97,South,172,0.0,2.7,48,0.00,,---,0.00,VWS V14.01,2013-07-28 22:01:00,
2013-07-29 00:06:00,79.9,57.9,29.97,South,172,0.0,0.0,47,0.00,,---,0.00,VWS V14.01,2013-07-28 22:06:00,
2013-07-29 00:11:00,79.9,57.9,29.97,South,172,0.0,0.0,47,0.00,,---,0.00,VWS V14.01,2013-07-28 22:11:00,
2013-07-29 00:16:00,79.9,59.0,29.97,South,172,0.0,0.0,49,0.00,,---,0.00,VWS V14.01,2013-07-28 22:16:00,
2013-07-29 00:21:00,79.9,60.2,29.97,South,172,0.0,0.0,51,0.00,,---,0.00,VWS V14.01,2013-07-28 22:21:00,
2013-07-29 00:27:00,79.7,61.6,29.97,South,172,0.0,0.0,54,0.00,,---,0.00,VWS V14.01,2013-07-28 22:27:00,
2013-07-29 00:32:00,79.2,61.1,29.97,South,172,0.0,0.0,54,0.00,,---,0.00,VWS V14.01,2013-07-28 22:32:00,
2013-07-29 00:37:00,78.8,61.3,29.97,South,172,0.0,0.0,55,0.00,,---,0.00,VWS V14.01,2013-07-28 22:37:00,
2013-07-29 00:42:00,78.4,61.0,29.97,South,172,0.0,3.6,55,0.00,,---,0.00,VWS V14.01,2013-07-28 22:42:00,
2013-07-29 00:47:00,78.1,60.6,29.97,South,172,0.0,0.0,55,0.00,,---,0.00,VWS V14.01,2013-07-28 22:47:00,
2013-07-29 00:52:00,77.9,61.5,29.97,South,172,0.0,0.0,57,0.00,,---,0.00,VWS V14.01,2013-07-28 22:52:00,
2013-07-29 00:57:00,77.5,62.1,29.97,South,172,0.0,0.0,59,0.00,,---,0.00,VWS V14.01,2013-07-28 22:57:00,
2013-07-29 01:02:00,77.0,61.6,29.97,South,172,0.0,0.0,59,0.00,,---,0.00,VWS V14.01,2013-07-28 23:02:00,
2013-07-29 01:07:00,76.6,61.7,29.97,South,172,0.0,0.0,60,0.00,,---,0.00,VWS V14.01,2013-07-28 23:07:00,
2013-07-29 01:12:00,76.5,61.6,29.97,South,172,0.0,0.0,60,0.00,,---,0.00,VWS V14.01,2013-07-28 23:12:00,
2013-07-29 01:17:00,76.6,61.7,29.97,South,172,0.0,0.0,60,0.00,,---,0.00,VWS V14.01,2013-07-28 23:17:00,
2013-07-29 01:22:00,76.8,60.9,29.97,South,172,0.0,0.0,58,0.00,,---,0.00,VWS V14.01,2013-07-28 23:22:00,
2013-07-29 01:27:00,76.6,60.3,29.97,South,172,0.0,0.0,57,0.00,,---,0.00,VWS V14.01,2013-07-28 23:27:00,
2013-07-29 01:32:00,76.6,60.8,29.97,South,172,0.0,0.0,58,0.00,,---,0.00,VWS V14.01,2013-07-28 23:32:00,
2013-07-29 01:37:00,77.2,60.3,29.97,South,172,4.9,5.4,56,0.00,,---,0.00,VWS V14.01,2013-07-28 23:37:00,
2013-07-29 01:42:00,77.5,59.1,29.97,South,172,4.9,5.8,53,0.00,,---,0.00,VWS V14.01,2013-07-28 23:42:00,
2013-07-29 01:47:00,77.9,58.9,29.97,SSE,161,5.8,6.7,52,0.00,,---,0.00,VWS V14.01,2013-07-28 23:47:00,
2013-07-29 01:52:00,77.9,58.3,29.97,SSE,162,4.9,5.8,51,0.00,,---,0.00,VWS V14.01,2013-07-28 23:52:00,
2013-07-29 01:57:00,77.9,57.8,29.97,SSE,163,4.9,4.9,50,0.00,,---,0.00,VWS V14.01,2013-07-28 23:57:00,
2013-07-29 02:02:00,78.1,58.0,29.94,SSE,163,0.0,0.0,50,0.00,,---,0.00,VWS V14.01,2013-07-29 00:02:00,
2013-07-29 02:07:00,77.9,58.9,29.94,SSE,163,0.0,0.0,52,0.00,,---,0.00,VWS V14.01,2013-07-29 00:07:00,
2013-07-29 02:12:00,77.7,59.2,29.94,SSE,163,0.0,0.0,53,0.00,,---,0.00,VWS V14.01,2013-07-29 00:12:00,
2013-07-29 02:17:00,77.5,59.6,29.97,SSE,163,0.0,0.0,54,0.00,,---,0.00,VWS V14.01,2013-07-29 00:17:00,
2013-07-29 02:22:00,77.2,59.8,29.97,South,191,4.5,4.9,55,0.00,,---,0.00,VWS V14.01,2013-07-29 00:22:00,
2013-07-29 02:27:00,77.0,60.6,29.97,South,191,4.0,4.9,57,0.00,,---,0.00,VWS V14.01,2013-07-29 00:27:00,
2013-07-29 02:32:00,76.8,60.9,29.94,South,191,0.0,0.0,58,0.00,,---,0.00,VWS V14.01,2013-07-29 00:32:00,
2013-07-29 02:37:00,76.3,61.4,29.94,South,191,0.0,0.0,60,0.00,,---,0.00,VWS V14.01,2013-07-29 00:37:00,
2013-07-29 02:42:00,75.2,61.3,29.94,South,191,0.0,0.0,62,0.00,,---,0.00,VWS V14.01,2013-07-29 00:42:00,
2013-07-29 02:47:00,74.5,61.5,29.94,South,191,0.0,0.0,64,0.00,,---,0.00,VWS V14.01,2013-07-29 00:47:00,
2013-07-29 02:52:00,73.8,61.3,29.94,South,191,0.0,0.0,65,0.00,,---,0.00,VWS V14.01,2013-07-29 00:52:00,
2013-07-29 02:57:00,73.8,61.7,29.94,South,191,0.0,0.0,66,0.00,,---,0.00,VWS V14.01,2013-07-29 00:57:00,
2013-07-29 03:02:00,73.6,62.0,29.94,South,191,0.0,0.0,67,0.00,,---,0.00,VWS V14.01,2013-07-29 01:02:00,
2013-07-29 03:07:00,73.6,62.4,29.94,South,191,0.0,0.0,68,0.00,,---,0.00,VWS V14.01,2013-07-29 01:07:00,
2013-07-29 03:12:00,73.8,63.0,29.94,South,191,0.0,0.0,69,0.00,,---,0.00,VWS V14.01,2013-07-29 01:12:00,
2013-07-29 03:17:00,74.3,63.5,29.94,South,191,0.0,2.7,69,0.00,,---,0.00,VWS V14.01,2013-07-29 01:17:00,
2013-07-29 03:22:00,74.3,63.5,29.94,South,191,0.0,0.0,69,0.00,,---,0.00,VWS V14.01,2013-07-29 01:22:00,
2013-07-29 03:27:00,73.9,63.5,29.94,South,191,0.0,0.0,70,0.00,,---,0.00,VWS V14.01,2013-07-29 01:27:00,
2013-07-29 03:32:00,73.4,63.0,29.94,South,191,0.0,0.0,70,0.00,,---,0.00,VWS V14.01,2013-07-29 01:32:00,
2013-07-29 03:37:00,73.6,63.2,29.94,South,191,0.0,0.0,70,0.00,,---,0.00,VWS V14.01,2013-07-29 01:37:00,
2013-07-29 03:43:00,72.9,62.5,29.94,South,191,0.0,0.0,70,0.00,,---,0.00,VWS V14.01,2013-07-29 01:43:00,
2013-07-29 03:48:00,72.5,61.8,29.94,South,191,0.0,0.0,69,0.00,,---,0.00,VWS V14.01,2013-07-29 01:48:00,
2013-07-29 03:53:00,72.3,62.0,29.94,South,191,0.0,0.0,70,0.00,,---,0.00,VWS V14.01,2013-07-29 01:53:00,
2013-07-29 03:58:00,73.0,62.7,29.94,South,191,2.7,2.7,70,0.00,,---,0.00,VWS V14.01,2013-07-29 01:58:00,
2013-07-29 04:03:00,73.8,63.4,29.94,South,191,4.9,4.9,70,0.00,,---,0.00,VWS V14.01,2013-07-29 02:03:00,
2013-07-29 04:08:00,73.9,63.1,29.94,West,266,4.9,4.9,69,0.00,,---,0.00,VWS V14.01,2013-07-29 02:08:00,
2013-07-29 04:13:00,74.1,62.9,29.94,West,268,0.0,3.6,68,0.00,,---,0.00,VWS V14.01,2013-07-29 02:13:00,
2013-07-29 04:18:00,74.1,63.3,29.94,West,268,4.0,4.0,69,0.00,,---,0.00,VWS V14.01,2013-07-29 02:18:00,
2013-07-29 04:23:00,74.1,63.3,29.94,West,268,0.0,0.0,69,0.00,,---,0.00,VWS V14.01,2013-07-29 02:23:00,
2013-07-29 04:28:00,73.0,62.3,29.94,West,268,0.0,0.0,69,0.00,,---,0.00,VWS V14.01,2013-07-29 02:28:00,
2013-07-29 04:33:00,72.0,61.7,29.94,West,268,0.0,0.0,70,0.00,,---,0.00,VWS V14.01,2013-07-29 02:33:00,
2013-07-29 04:38:00,71.6,61.7,29.94,West,268,0.0,0.0,71,0.00,,---,0.00,VWS V14.01,2013-07-29 02:38:00,
2013-07-29 04:43:00,71.4,61.5,29.94,West,268,0.0,0.0,71,0.00,,---,0.00,VWS V14.01,2013-07-29 02:43:00,
2013-07-29 04:48:00,71.6,61.7,29.94,West,268,0.0,0.0,71,0.00,,---,0.00,VWS V14.01,2013-07-29 02:48:00,
2013-07-29 04:53:00,71.8,61.9,29.94,West,268,0.0,0.0,71,0.00,,---,0.00,VWS V14.01,2013-07-29 02:53:00,
2013-07-29 04:58:00,72.1,62.2,29.94,West,268,0.0,0.0,71,0.00,,---,0.00,VWS V14.01,2013-07-29 02:58:00,
2013-07-29 05:03:00,72.0,62.0,29.94,West,268,0.0,0.0,71,0.00,,---,0.00,VWS V14.01,2013-07-29 03:03:00,
2013-07-29 05:08:00,71.8,61.9,29.94,West,268,0.0,0.0,71,0.00,,---,0.00,VWS V14.01,2013-07-29 03:08:00,
2013-07-29 05:14:00,71.6,61.7,29.94,West,268,0.0,0.0,71,0.00,,---,0.00,VWS V14.01,2013-07-29 03:14:00,
2013-07-29 05:19:00,71.2,61.4,29.94,West,268,0.0,0.0,71,0.00,,---,0.00,VWS V14.01,2013-07-29 03:19:00,
2013-07-29 05:24:00,70.9,60.6,29.94,West,268,0.0,0.0,70,0.00,,---,0.00,VWS V14.01,2013-07-29 03:24:00,
2013-07-29 05:29:00,70.7,60.0,29.94,West,268,0.0,0.0,69,0.00,,---,0.00,VWS V14.01,2013-07-29 03:29:00,
2013-07-29 05:34:00,71.1,60.8,29.94,West,268,0.0,0.0,70,0.00,,---,0.00,VWS V14.01,2013-07-29 03:34:00,
2013-07-29 05:39:00,71.8,61.1,29.94,West,268,0.0,0.0,69,0.00,,---,0.00,VWS V14.01,2013-07-29 03:39:00,
2013-07-29 05:44:00,71.6,60.5,29.94,West,268,0.0,0.0,68,0.00,,---,0.00,VWS V14.01,2013-07-29 03:44:00,
2013-07-29 05:49:00,72.0,60.8,29.94,West,268,0.0,0.0,68,0.00,,---,0.00,VWS V14.01,2013-07-29 03:49:00,
2013-07-29 05:54:00,72.5,61.3,29.94,West,268,3.1,3.6,68,0.00,,---,0.00,VWS V14.01,2013-07-29 03:54:00,
2013-07-29 05:59:00,73.6,62.0,29.94,West,269,4.5,4.9,67,0.00,,---,0.00,VWS V14.01,2013-07-29 03:59:00,
2013-07-29 06:01:00,73.9,62.3,29.94,West,269,4.5,4.9,67,0.00,,---,0.00,VWS V14.01,2013-07-29 04:01:00,
2013-07-29 06:02:00,74.1,62.5,29.94,West,269,4.9,4.9,67,0.00,,---,0.00,VWS V14.01,2013-07-29 04:02:00,
2013-07-29 06:07:00,75.0,62.5,29.94,West,269,4.5,4.9,65,0.00,,---,0.00,VWS V14.01,2013-07-29 04:07:00,
2013-07-29 06:12:00,75.9,62.4,29.94,West,271,4.0,4.5,63,0.00,,---,0.00,VWS V14.01,2013-07-29 04:12:00,
2013-07-29 06:17:00,75.6,61.2,29.94,West,271,0.0,3.6,61,0.00,,---,0.00,VWS V14.01,2013-07-29 04:17:00,
2013-07-29 06:22:00,75.7,60.9,29.94,West,271,0.0,0.0,60,0.00,,---,0.00,VWS V14.01,2013-07-29 04:22:00,
2013-07-29 06:27:00,75.7,60.9,29.94,West,271,0.0,0.0,60,0.00,,---,0.00,VWS V14.01,2013-07-29 04:27:00,
2013-07-29 06:32:00,75.7,60.4,29.94,West,271,3.6,3.6,59,0.00,,---,0.00,VWS V14.01,2013-07-29 04:32:00,
2013-07-29 06:37:00,76.1,60.8,29.94,West,271,3.6,4.0,59,0.00,,---,0.00,VWS V14.01,2013-07-29 04:37:00,
2013-07-29 06:42:00,76.6,60.8,29.94,West,271,4.0,4.0,58,0.00,,---,0.00,VWS V14.01,2013-07-29 04:42:00,
2013-07-29 06:47:00,77.2,60.8,29.94,West,271,0.0,0.0,57,0.00,,---,0.00,VWS V14.01,2013-07-29 04:47:00,
2013-07-29 06:52:00,77.4,60.5,29.94,West,271,0.0,0.0,56,0.00,,---,0.00,VWS V14.01,2013-07-29 04:52:00,
2013-07-29 06:57:00,77.7,60.8,29.94,West,271,0.0,0.0,56,0.00,,---,0.00,VWS V14.01,2013-07-29 04:57:00,
2013-07-29 07:02:00,78.1,60.6,29.94,West,271,0.0,0.0,55,0.00,,---,0.00,VWS V14.01,2013-07-29 05:02:00,
2013-07-29 07:07:00,78.6,61.1,29.94,West,271,0.0,0.0,55,0.00,,---,0.00,VWS V14.01,2013-07-29 05:07:00,
2013-07-29 07:12:00,79.2,61.1,29.94,West,271,0.0,0.0,54,0.00,,---,0.00,VWS V14.01,2013-07-29 05:12:00,
2013-07-29 07:17:00,79.3,60.7,29.94,West,271,0.0,0.0,53,0.00,,---,0.00,VWS V14.01,2013-07-29 05:17:00,
2013-07-29 07:22:00,80.2,61.0,29.94,West,271,2.7,4.0,52,0.00,,---,0.00,VWS V14.01,2013-07-29 05:22:00,
2013-07-29 07:27:00,81.1,61.3,29.94,West,271,3.6,4.0,51,0.00,,---,0.00,VWS V14.01,2013-07-29 05:27:00,
2013-07-29 07:32:00,81.3,60.9,29.94,West,271,4.5,4.9,50,0.00,,---,0.00,VWS V14.01,2013-07-29 05:32:00,
2013-07-29 07:37:00,81.5,60.5,29.94,West,271,0.0,2.7,49,0.00,,---,0.00,VWS V14.01,2013-07-29 05:37:00,
2013-07-29 07:42:00,80.8,59.9,29.94,West,271,3.1,3.6,49,0.00,,---,0.00,VWS V14.01,2013-07-29 05:42:00,
2013-07-29 07:48:00,79.9,59.0,29.94,West,271,0.0,0.0,49,0.00,,---,0.00,VWS V14.01,2013-07-29 05:48:00,
2013-07-29 07:53:00,80.2,59.4,29.94,West,271,0.0,3.6,49,0.00,,---,0.00,VWS V14.01,2013-07-29 05:53:00,
2013-07-29 07:58:00,81.3,59.8,29.94,West,271,2.7,3.6,48,0.00,,---,0.00,VWS V14.01,2013-07-29 05:58:00,
2013-07-29 08:03:00,82.0,58.0,29.94,West,271,0.0,0.0,44,0.00,,---,0.00,VWS V14.01,2013-07-29 06:03:00,
2013-07-29 08:08:00,82.9,58.2,29.94,SSE,159,3.1,5.4,43,0.00,,---,0.00,VWS V14.01,2013-07-29 06:08:00,
2013-07-29 08:13:00,84.2,58.0,29.94,SSE,159,0.0,0.0,41,0.00,,---,0.00,VWS V14.01,2013-07-29 06:13:00,
2013-07-29 08:18:00,85.1,58.1,29.94,SSE,166,0.0,4.5,40,0.00,,---,0.00,VWS V14.01,2013-07-29 06:18:00,
2013-07-29 08:23:00,85.8,58.7,29.94,SSE,166,0.0,2.7,40,0.00,,---,0.00,VWS V14.01,2013-07-29 06:23:00,
2013-07-29 08:28:00,86.0,58.2,29.94,SSE,167,0.0,3.6,39,0.00,,---,0.00,VWS V14.01,2013-07-29 06:28:00,
2013-07-29 08:33:00,86.2,56.1,29.94,SSE,167,4.0,6.3,36,0.00,,---,0.00,VWS V14.01,2013-07-29 06:33:00,
2013-07-29 08:38:00,86.5,55.7,29.94,South,170,6.3,8.3,35,0.00,,---,0.00,VWS V14.01,2013-07-29 06:38:00,
2013-07-29 08:43:00,86.4,55.5,29.94,SSE,168,4.5,6.3,35,0.00,,---,0.00,VWS V14.01,2013-07-29 06:43:00,
2013-07-29 08:48:00,87.1,55.3,29.94,South,170,7.8,7.8,34,0.00,,---,0.00,VWS V14.01,2013-07-29 06:48:00,
2013-07-29 08:53:00,86.9,54.4,29.94,SSE,162,6.9,10.5,33,0.00,,---,0.00,VWS V14.01,2013-07-29 06:53:00,
2013-07-29 08:58:00,87.1,54.5,29.94,South,170,8.3,8.3,33,0.00,,---,0.00,VWS V14.01,2013-07-29 06:58:00,
2013-07-29 09:03:00,87.1,53.7,29.94,SSE,164,6.7,13.0,32,0.00,,---,0.00,VWS V14.01,2013-07-29 07:03:00,
2013-07-29 09:08:00,87.1,53.7,29.94,South,175,8.3,9.6,32,0.00,,---,0.00,VWS V14.01,2013-07-29 07:08:00,
2013-07-29 09:13:00,87.8,53.4,29.94,South,171,5.4,7.8,31,0.00,,---,0.00,VWS V14.01,2013-07-29 07:13:00,
2013-07-29 09:18:00,88.5,54.1,29.94,SSE,167,4.0,4.0,31,0.00,,---,0.00,VWS V14.01,2013-07-29 07:18:00,
2013-07-29 09:23:00,89.6,55.0,29.94,South,171,0.0,5.8,31,0.00,,---,0.00,VWS V14.01,2013-07-29 07:23:00,
2013-07-29 09:28:00,90.0,54.4,29.94,SSE,163,0.0,4.9,30,0.00,,---,0.00,VWS V14.01,2013-07-29 07:28:00,
2013-07-29 09:33:00,89.4,53.9,29.91,SSE,161,5.4,5.4,30,0.00,,---,0.00,VWS V14.01,2013-07-29 07:33:00,
2013-07-29 09:38:00,89.6,54.1,29.91,South,169,2.7,5.8,30,0.00,,---,0.00,VWS V14.01,2013-07-29 07:38:00,
2013-07-29 09:43:00,90.1,54.5,29.91,SE,129,3.6,4.5,30,0.00,,---,0.00,VWS V14.01,2013-07-29 07:43:00,
2013-07-29 09:48:00,90.5,53.9,29.94,SSE,151,6.7,7.8,29,0.00,,---,0.00,VWS V14.01,2013-07-29 07:48:00,
2013-07-29 09:53:00,90.1,53.6,29.94,South,180,7.8,8.7,29,0.00,,---,0.00,VWS V14.01,2013-07-29 07:53:00,
2013-07-29 09:58:00,89.8,53.3,29.94,SSE,168,5.8,8.7,29,0.00,,---,0.00,VWS V14.01,2013-07-29 07:58:00,
2013-07-29 10:03:00,90.1,54.5,29.91,SSE,166,8.7,9.2,30,0.00,,---,0.00,VWS V14.01,2013-07-29 08:03:00,
2013-07-29 10:08:00,90.3,54.7,29.91,SSE,163,4.0,4.0,30,0.00,,---,0.00,VWS V14.01,2013-07-29 08:08:00,
2013-07-29 10:13:00,90.9,54.2,29.91,SSW,199,3.6,6.7,29,0.00,,---,0.00,VWS V14.01,2013-07-29 08:13:00,
2013-07-29 10:18:00,91.6,54.9,29.91,SSE,162,4.5,6.9,29,0.00,,---,0.00,VWS V14.01,2013-07-29 08:18:00,
2013-07-29 10:23:00,91.9,55.2,29.91,SSE,155,10.1,11.2,29,0.00,,---,0.00,VWS V14.01,2013-07-29 08:23:00,
2013-07-29 10:28:00,91.8,55.0,29.91,SSE,156,4.9,9.6,29,0.00,,---,0.00,VWS V14.01,2013-07-29 08:28:00,
2013-07-29 10:33:00,92.3,55.5,29.91,South,174,2.7,4.5,29,0.00,,---,0.00,VWS V14.01,2013-07-29 08:33:00,
2013-07-29 10:38:00,92.8,55.0,29.91,South,174,6.9,6.9,28,0.00,,---,0.00,VWS V14.01,2013-07-29 08:38:00,
2013-07-29 10:43:00,92.7,54.8,29.91,SSE,155,3.1,6.3,28,0.00,,---,0.00,VWS V14.01,2013-07-29 08:43:00,
2013-07-29 10:48:00,92.8,55.0,29.91,SSE,157,7.8,9.2,28,0.00,,---,0.00,VWS V14.01,2013-07-29 08:48:00,
2013-07-29 10:53:00,91.9,54.2,29.91,SSE,161,3.1,8.7,28,0.00,,---,0.00,VWS V14.01,2013-07-29 08:53:00,
2013-07-29 10:58:00,92.3,55.5,29.91,South,170,2.7,5.8,29,0.00,,---,0.00,VWS V14.01,2013-07-29 08:58:00,
2013-07-29 11:03:00,92.8,55.0,29.91,SSE,163,7.8,11.0,28,0.00,,---,0.00,VWS V14.01,2013-07-29 09:03:00,
2013-07-29 11:08:00,92.8,55.0,29.91,SSE,166,0.0,4.5,28,0.00,,---,0.00,VWS V14.01,2013-07-29 09:08:00,
2013-07-29 11:13:00,93.7,55.7,29.91,SSE,164,4.9,6.3,28,0.00,,---,0.00,VWS V14.01,2013-07-29 09:13:00,
2013-07-29 11:18:00,94.1,55.0,29.91,SSE,167,0.0,4.9,27,0.00,,---,0.00,VWS V14.01,2013-07-29 09:18:00,
2013-07-29 11:23:00,93.9,55.9,29.91,SSE,167,0.0,7.4,28,0.00,,---,0.00,VWS V14.01,2013-07-29 09:23:00,
2013-07-29 11:28:00,93.9,55.9,29.91,SSW,205,3.1,4.5,28,0.00,,---,0.00,VWS V14.01,2013-07-29 09:28:00,
2013-07-29 11:33:00,94.3,55.2,29.91,SSE,165,4.9,5.8,27,0.00,,---,0.00,VWS V14.01,2013-07-29 09:33:00,
2013-07-29 11:38:00,94.1,56.0,29.91,SSE,162,3.6,3.6,28,0.00,,---,0.00,VWS V14.01,2013-07-29 09:38:00,
2013-07-29 11:43:00,94.1,56.0,29.91,SSE,161,5.8,9.2,28,0.00,,---,0.00,VWS V14.01,2013-07-29 09:43:00,
2013-07-29 11:48:00,93.9,56.9,29.91,SE,145,4.5,4.5,29,0.00,,---,0.00,VWS V14.01,2013-07-29 09:48:00,
2013-07-29 11:53:00,94.5,57.3,29.91,East,99,2.7,6.7,29,0.00,,---,0.00,VWS V14.01,2013-07-29 09:53:00,
2013-07-29 11:58:00,94.6,56.5,29.91,SSE,164,0.0,4.9,28,0.00,,---,0.00,VWS V14.01,2013-07-29 09:58:00,
2013-07-29 12:03:00,94.8,57.6,29.91,SE,137,0.0,4.9,29,0.00,,---,0.00,VWS V14.01,2013-07-29 10:03:00,
2013-07-29 12:08:00,94.8,57.6,29.91,SSE,166,4.5,5.8,29,0.00,,---,0.00,VWS V14.01,2013-07-29 10:08:00,
2013-07-29 12:13:00,94.5,57.3,29.91,SSE,152,4.0,4.0,29,0.00,,---,0.00,VWS V14.01,2013-07-29 10:13:00,
2013-07-29 12:18:00,94.8,57.6,29.91,SSE,159,2.7,2.7,29,0.00,,---,0.00,VWS V14.01,2013-07-29 10:18:00,
2013-07-29 12:23:00,95.0,57.8,29.91,SSE,160,3.1,4.9,29,0.00,,---,0.00,VWS V14.01,2013-07-29 10:23:00,
2013-07-29 12:28:00,95.2,57.9,29.91,SE,125,0.0,4.5,29,0.00,,---,0.00,VWS V14.01,2013-07-29 10:28:00,
2013-07-29 12:33:00,95.0,57.8,29.91,SSE,154,2.7,5.4,29,0.00,,---,0.00,VWS V14.01,2013-07-29 10:33:00,
2013-07-29 12:38:00,95.0,57.8,29.91,SSE,163,5.4,7.4,29,0.00,,---,0.00,VWS V14.01,2013-07-29 10:38:00,
2013-07-29 12:43:00,94.8,56.7,29.91,SE,141,4.0,5.4,28,0.00,,---,0.00,VWS V14.01,2013-07-29 10:43:00,
2013-07-29 12:48:00,95.0,56.8,29.91,South,172,6.9,7.8,28,0.00,,---,0.00,VWS V14.01,2013-07-29 10:48:00,
2013-07-29 12:53:00,95.2,57.0,29.91,South,174,6.7,6.7,28,0.00,,---,0.00,VWS V14.01,2013-07-29 10:53:00,
2013-07-29 12:58:00,95.4,56.1,29.91,SE,143,3.1,5.8,27,0.00,,---,0.00,VWS V14.01,2013-07-29 10:58:00,
2013-07-29 13:03:00,95.5,57.3,29.91,SSE,167,3.1,9.2,28,0.00,,---,0.00,VWS V14.01,2013-07-29 11:03:00,
2013-07-29 13:08:00,95.7,56.4,29.91,SSE,152,2.7,4.9,27,0.00,,---,0.00,VWS V14.01,2013-07-29 11:08:00,
2013-07-29 13:13:00,95.7,56.4,29.91,SSE,167,0.0,6.7,27,0.00,,---,0.00,VWS V14.01,2013-07-29 11:13:00,
2013-07-29 13:18:00,95.7,57.4,29.88,SSE,160,2.7,5.4,28,0.00,,---,0.00,VWS V14.01,2013-07-29 11:18:00,
2013-07-29 13:23:00,95.7,56.4,29.88,South,175,4.5,4.5,27,0.00,,---,0.00,VWS V14.01,2013-07-29 11:23:00,
2013-07-29 13:28:00,95.9,56.6,29.88,SE,139,0.0,0.0,27,0.00,,---,0.00,VWS V14.01,2013-07-29 11:28:00,
2013-07-29 13:33:00,96.1,56.7,29.88,South,171,3.1,5.8,27,0.00,,---,0.00,VWS V14.01,2013-07-29 11:33:00,
2013-07-29 13:38:00,96.3,56.9,29.88,South,171,3.6,4.0,27,0.00,,---,0.00,VWS V14.01,2013-07-29 11:38:00,
2013-07-29 13:43:00,96.3,56.9,29.88,ESE,116,3.1,4.5,27,0.00,,---,0.00,VWS V14.01,2013-07-29 11:43:00,
2013-07-29 13:48:00,96.4,57.0,29.88,South,169,0.0,0.0,27,0.00,,---,0.00,VWS V14.01,2013-07-29 11:48:00,
2013-07-29 13:53:00,96.4,57.0,29.88,South,178,2.7,4.9,27,0.00,,---,0.00,VWS V14.01,2013-07-29 11:53:00,
2013-07-29 13:58:00,96.4,57.0,29.88,SE,133,3.6,3.6,27,0.00,,---,0.00,VWS V14.01,2013-07-29 11:58:00,
2013-07-29 14:04:00,96.6,57.2,29.88,South,184,0.0,7.8,27,0.00,,---,0.00,VWS V14.01,2013-07-29 12:04:00,
2013-07-29 14:09:00,96.6,57.2,29.88,SE,140,4.0,4.9,27,0.00,,---,0.00,VWS V14.01,2013-07-29 12:09:00,
2013-07-29 14:14:00,96.4,57.0,29.88,South,184,3.1,4.5,27,0.00,,---,0.00,VWS V14.01,2013-07-29 12:14:00,
2013-07-29 14:19:00,96.6,57.2,29.88,SE,133,0.0,4.9,27,0.00,,---,0.00,VWS V14.01,2013-07-29 12:19:00,
2013-07-29 14:24:00,96.8,57.3,29.88,SSE,157,4.5,4.9,27,0.00,,---,0.00,VWS V14.01,2013-07-29 12:24:00,
2013-07-29 14:29:00,96.6,57.2,29.88,SSE,159,0.0,3.1,27,0.00,,---,0.00,VWS V14.01,2013-07-29 12:29:00,
2013-07-29 14:34:00,97.0,57.5,29.88,SSW,202,0.0,4.0,27,0.00,,---,0.00,VWS V14.01,2013-07-29 12:34:00,
2013-07-29 14:39:00,97.3,57.8,29.88,ESE,119,4.9,5.4,27,0.00,,---,0.00,VWS V14.01,2013-07-29 12:39:00,
2013-07-29 14:44:00,97.3,57.8,29.88,South,175,3.1,4.0,27,0.00,,---,0.00,VWS V14.01,2013-07-29 12:44:00,
2013-07-29 14:49:00,97.3,57.8,29.88,SE,140,0.0,3.6,27,0.00,,---,0.00,VWS V14.01,2013-07-29 12:49:00,
2013-07-29 14:54:00,97.3,57.8,29.88,South,176,2.7,3.6,27,0.00,,---,0.00,VWS V14.01,2013-07-29 12:54:00,
2013-07-29 14:59:00,97.3,56.8,29.88,SE,127,3.1,5.4,26,0.00,,---,0.00,VWS V14.01,2013-07-29 12:59:00,
2013-07-29 15:04:00,97.3,56.8,29.85,SSE,159,0.0,3.1,26,0.00,,---,0.00,VWS V14.01,2013-07-29 13:04:00,
2013-07-29 15:10:00,97.5,58.0,29.85,SE,139,2.7,3.1,27,0.00,,---,0.00,VWS V14.01,2013-07-29 13:10:00,
2013-07-29 15:15:00,97.5,58.0,29.85,SE,135,0.0,3.1,27,0.00,,---,0.00,VWS V14.01,2013-07-29 13:15:00,
2013-07-29 15:20:00,97.5,56.9,29.85,SE,140,0.0,2.7,26,0.00,,---,0.00,VWS V14.01,2013-07-29 13:20:00,
2013-07-29 15:25:00,97.5,56.9,29.85,SE,141,2.7,3.6,26,0.00,,---,0.00,VWS V14.01,2013-07-29 13:25:00,
2013-07-29 15:30:00,97.5,58.0,29.85,SSE,162,3.1,4.9,27,0.00,,---,0.00,VWS V14.01,2013-07-29 13:30:00,
2013-07-29 15:36:00,97.5,58.0,29.85,SSE,162,0.0,0.0,27,0.00,,---,0.00,VWS V14.01,2013-07-29 13:36:00,
2013-07-29 15:41:00,97.9,57.2,29.85,SSE,163,3.1,3.1,26,0.00,,---,0.00,VWS V14.01,2013-07-29 13:41:00,
2013-07-29 15:46:00,97.7,58.1,29.85,SSE,163,0.0,4.0,27,0.00,,---,0.00,VWS V14.01,2013-07-29 13:46:00,
2013-07-29 15:52:00,97.5,58.0,29.85,SSE,164,2.7,4.9,27,0.00,,---,0.00,VWS V14.01,2013-07-29 13:52:00,
2013-07-29 15:57:00,97.5,58.0,29.85,SSE,150,2.7,2.7,27,0.00,,---,0.00,VWS V14.01,2013-07-29 13:57:00,
2013-07-29 16:02:00,97.5,58.0,29.85,SSE,150,3.1,3.1,27,0.00,,---,0.00,VWS V14.01,2013-07-29 14:02:00,
2013-07-29 16:07:00,97.5,58.0,29.85,SSE,152,5.8,5.8,27,0.00,,---,0.00,VWS V14.01,2013-07-29 14:07:00,
2013-07-29 16:12:00,97.5,58.0,29.85,SSE,155,3.6,4.5,27,0.00,,---,0.00,VWS V14.01,2013-07-29 14:12:00,
2013-07-29 16:17:00,97.3,57.8,29.85,SSE,165,3.1,4.5,27,0.00,,---,0.00,VWS V14.01,2013-07-29 14:17:00,
2013-07-29 16:22:00,97.5,58.0,29.85,SSE,160,0.0,0.0,27,0.00,,---,0.00,VWS V14.01,2013-07-29 14:22:00,
2013-07-29 16:28:00,97.5,58.0,29.85,SE,146,2.7,6.3,27,0.00,,---,0.00,VWS V14.01,2013-07-29 14:28:00,
2013-07-29 16:33:00,97.5,58.0,29.83,SSE,147,0.0,4.0,27,0.00,,---,0.00,VWS V14.01,2013-07-29 14:33:00,
2013-07-29 16:38:00,97.7,58.1,29.83,SSE,147,2.7,4.9,27,0.00,,---,0.00,VWS V14.01,2013-07-29 14:38:00,
2013-07-29 16:43:00,97.7,58.1,29.83,SSE,158,4.0,4.0,27,0.00,,---,0.00,VWS V14.01,2013-07-29 14:43:00,
2013-07-29 16:48:00,97.5,58.0,29.83,SSE,161,2.7,4.5,27,0.00,,---,0.00,VWS V14.01,2013-07-29 14:48:00,
2013-07-29 16:53:00,97.3,57.8,29.83,SE,136,3.1,4.5,27,0.00,,---,0.00,VWS V14.01,2013-07-29 14:53:00,
2013-07-29 16:58:00,97.5,58.0,29.83,SSE,158,0.0,5.4,27,0.00,,---,0.00,VWS V14.01,2013-07-29 14:58:00,
2013-07-29 17:03:00,97.5,58.0,29.83,SSE,160,3.1,3.1,27,0.00,,---,0.00,VWS V14.01,2013-07-29 15:03:00,
2013-07-29 17:08:00,97.5,58.0,29.83,SSE,160,0.0,0.0,27,0.00,,---,0.00,VWS V14.01,2013-07-29 15:08:00,
2013-07-29 17:13:00,97.5,58.0,29.83,SSE,160,0.0,2.7,27,0.00,,---,0.00,VWS V14.01,2013-07-29 15:13:00,
2013-07-29 17:18:00,97.3,57.8,29.83,SSW,207,2.7,3.1,27,0.00,,---,0.00,VWS V14.01,2013-07-29 15:18:00,
2013-07-29 17:23:00,97.5,58.0,29.83,South,169,3.1,4.0,27,0.00,,---,0.00,VWS V14.01,2013-07-29 15:23:00,
2013-07-29 17:28:00,97.3,57.8,29.83,South,183,0.0,0.0,27,0.00,,---,0.00,VWS V14.01,2013-07-29 15:28:00,
2013-07-29 17:33:00,97.3,57.8,29.83,South,183,2.7,3.1,27,0.00,,---,0.00,VWS V14.01,2013-07-29 15:33:00,
2013-07-29 17:38:00,97.5,58.0,29.83,South,174,0.0,3.1,27,0.00,,---,0.00,VWS V14.01,2013-07-29 15:38:00,
2013-07-29 17:43:00,97.5,58.0,29.83,SSE,168,0.0,2.7,27,0.00,,---,0.00,VWS V14.01,2013-07-29 15:43:00,
2013-07-29 17:48:00,97.3,57.8,29.83,South,169,0.0,3.1,27,0.00,,---,0.00,VWS V14.01,2013-07-29 15:48:00,
2013-07-29 17:54:00,97.3,57.8,29.83,South,169,0.0,0.0,27,0.00,,---,0.00,VWS V14.01,2013-07-29 15:54:00,
2013-07-29 17:59:00,97.2,58.7,29.83,WSW,239,0.0,4.9,28,0.00,,---,0.00,VWS V14.01,2013-07-29 15:59:00,
2013-07-29 18:04:00,97.0,58.5,29.83,SW,221,2.7,2.7,28,0.00,,---,0.00,VWS V14.01,2013-07-29 16:04:00,
2013-07-29 18:09:00,97.0,57.5,29.83,South,170,0.0,0.0,27,0.00,,---,0.00,VWS V14.01,2013-07-29 16:09:00,
2013-07-29 18:14:00,97.0,57.5,29.83,South,170,0.0,0.0,27,0.00,,---,0.00,VWS V14.01,2013-07-29 16:14:00,
2013-07-29 18:19:00,97.0,57.5,29.83,South,170,0.0,0.0,27,0.00,,---,0.00,VWS V14.01,2013-07-29 16:19:00,
2013-07-29 18:24:00,97.0,57.5,29.83,South,170,2.7,2.7,27,0.00,,---,0.00,VWS V14.01,2013-07-29 16:24:00,
2013-07-29 18:29:00,96.8,57.3,29.83,South,173,0.0,0.0,27,0.00,,---,0.00,VWS V14.01,2013-07-29 16:29:00,
2013-07-29 18:34:00,96.6,57.2,29.83,South,172,0.0,0.0,27,0.00,,---,0.00,VWS V14.01,2013-07-29 16:34:00,
2013-07-29 18:39:00,96.4,58.0,29.83,SW,230,0.0,2.7,28,0.00,,---,0.00,VWS V14.01,2013-07-29 16:39:00,
2013-07-29 18:44:00,96.3,57.9,29.83,South,190,0.0,0.0,28,0.00,,---,0.00,VWS V14.01,2013-07-29 16:44:00,
2013-07-29 18:49:00,96.1,57.7,29.83,SSE,168,0.0,0.0,28,0.00,,---,0.00,VWS V14.01,2013-07-29 16:49:00,
2013-07-29 18:54:00,95.7,58.4,29.83,South,169,0.0,0.0,29,0.00,,---,0.00,VWS V14.01,2013-07-29 16:54:00,
2013-07-29 19:00:00,95.4,58.1,29.83,SSE,168,0.0,0.0,29,0.00,,---,0.00,VWS V14.01,2013-07-29 17:00:00,
2013-07-29 19:05:00,95.4,58.1,29.83,South,169,0.0,3.1,29,0.00,,---,0.00,VWS V14.01,2013-07-29 17:05:00,
2013-07-29 19:10:00,95.2,57.9,29.83,South,169,0.0,3.6,29,0.00,,---,0.00,VWS V14.01,2013-07-29 17:10:00,
2013-07-29 19:15:00,94.8,57.6,29.83,South,169,3.1,3.1,29,0.00,,---,0.00,VWS V14.01,2013-07-29 17:15:00,
2013-07-29 19:20:00,94.5,57.3,29.83,South,169,2.7,3.6,29,0.00,,---,0.00,VWS V14.01,2013-07-29 17:20:00,
2013-07-29 19:25:00,94.3,57.2,29.83,South,171,3.1,3.6,29,0.00,,---,0.00,VWS V14.01,2013-07-29 17:25:00,
2013-07-29 19:30:00,93.9,57.8,29.83,South,171,0.0,3.1,30,0.00,,---,0.00,VWS V14.01,2013-07-29 17:30:00,
2013-07-29 19:35:00,93.6,57.5,29.83,South,171,0.0,0.0,30,0.00,,---,0.00,VWS V14.01,2013-07-29 17:35:00,
2013-07-29 19:40:00,93.4,57.3,29.83,South,171,0.0,0.0,30,0.00,,---,0.00,VWS V14.01,2013-07-29 17:40:00,
2013-07-29 19:45:00,93.4,57.3,29.83,South,171,0.0,0.0,30,0.00,,---,0.00,VWS V14.01,2013-07-29 17:45:00,
2013-07-29 19:50:00,93.4,57.3,29.83,South,171,0.0,0.0,30,0.00,,---,0.00,VWS V14.01,2013-07-29 17:50:00,
2013-07-29 19:55:00,93.2,57.2,29.83,South,171,0.0,2.7,30,0.00,,---,0.00,VWS V14.01,2013-07-29 17:55:00,
2013-07-29 20:01:00,93.2,57.2,29.83,South,172,0.0,4.0,30,0.00,,---,0.00,VWS V14.01,2013-07-29 18:01:00,
2013-07-29 20:06:00,93.0,57.0,29.83,South,172,0.0,3.6,30,0.00,,---,0.00,VWS V14.01,2013-07-29 18:06:00,
2013-07-29 20:11:00,92.8,57.8,29.83,South,172,0.0,0.0,31,0.00,,---,0.00,VWS V14.01,2013-07-29 18:11:00,
2013-07-29 20:16:00,92.5,57.5,29.83,South,172,0.0,2.7,31,0.00,,---,0.00,VWS V14.01,2013-07-29 18:16:00,
2013-07-29 20:21:00,92.5,57.5,29.83,South,172,0.0,0.0,31,0.00,,---,0.00,VWS V14.01,2013-07-29 18:21:00,
2013-07-29 20:26:00,92.3,57.3,29.83,South,172,0.0,3.1,31,0.00,,---,0.00,VWS V14.01,2013-07-29 18:26:00,
2013-07-29 20:31:00,92.1,57.2,29.83,South,172,0.0,3.6,31,0.00,,---,0.00,VWS V14.01,2013-07-29 18:31:00,
2013-07-29 20:36:00,92.1,57.2,29.83,South,172,0.0,0.0,31,0.00,,---,0.00,VWS V14.01,2013-07-29 18:36:00,
2013-07-29 20:41:00,91.8,56.9,29.83,South,172,4.5,4.9,31,0.00,,---,0.00,VWS V14.01,2013-07-29 18:41:00,
2013-07-29 20:46:00,91.6,57.6,29.83,South,172,3.6,4.5,32,0.00,,---,0.00,VWS V14.01,2013-07-29 18:46:00,
2013-07-29 20:51:00,91.4,57.4,29.83,South,172,4.5,4.5,32,0.00,,---,0.00,VWS V14.01,2013-07-29 18:51:00,
2013-07-29 20:56:00,91.0,57.1,29.83,South,172,0.0,0.0,32,0.00,,---,0.00,VWS V14.01,2013-07-29 18:56:00,
2013-07-29 21:01:00,90.7,57.7,29.83,South,172,2.7,3.6,33,0.00,,---,0.00,VWS V14.01,2013-07-29 19:01:00,
2013-07-29 21:06:00,90.3,57.3,29.83,South,172,4.0,4.0,33,0.00,,---,0.00,VWS V14.01,2013-07-29 19:06:00,
2013-07-29 21:11:00,90.0,57.9,29.83,South,172,0.0,3.1,34,0.00,,---,0.00,VWS V14.01,2013-07-29 19:11:00,
2013-07-29 21:16:00,89.8,58.5,29.83,South,172,3.6,4.0,35,0.00,,---,0.00,VWS V14.01,2013-07-29 19:16:00,
2013-07-29 21:22:00,89.8,58.5,29.83,SSE,160,0.0,4.5,35,0.00,,---,0.00,VWS V14.01,2013-07-29 19:22:00,
2013-07-29 21:27:00,89.6,59.1,29.83,SSE,160,0.0,0.0,36,0.00,,---,0.00,VWS V14.01,2013-07-29 19:27:00,
2013-07-29 21:32:00,89.6,59.1,29.83,SSE,160,0.0,0.0,36,0.00,,---,0.00,VWS V14.01,2013-07-29 19:32:00,
2013-07-29 21:37:00,89.4,59.0,29.83,SSE,160,0.0,0.0,36,0.00,,---,0.00,VWS V14.01,2013-07-29 19:37:00,
2013-07-29 21:42:00,89.2,59.6,29.83,SSE,160,0.0,0.0,37,0.00,,---,0.00,VWS V14.01,2013-07-29 19:42:00,
2013-07-29 21:47:00,89.1,59.4,29.83,SSE,160,0.0,0.0,37,0.00,,---,0.00,VWS V14.01,2013-07-29 19:47:00,
2013-07-29 21:52:00,88.9,59.3,29.83,SSE,160,0.0,0.0,37,0.00,,---,0.00,VWS V14.01,2013-07-29 19:52:00,
2013-07-29 21:58:00,88.9,59.3,29.83,SSE,160,0.0,0.0,37,0.00,,---,0.00,VWS V14.01,2013-07-29 19:58:00,
2013-07-29 22:03:00,88.7,59.9,29.83,SSE,160,0.0,0.0,38,0.00,,---,0.00,VWS V14.01,2013-07-29 20:03:00,
2013-07-29 22:08:00,88.7,59.9,29.83,SSE,160,0.0,0.0,38,0.00,,---,0.00,VWS V14.01,2013-07-29 20:08:00,
2013-07-29 22:13:00,88.5,59.7,29.83,NNW,329,4.9,6.9,38,0.00,,---,0.00,VWS V14.01,2013-07-29 20:13:00,
2013-07-29 22:18:00,88.3,59.5,29.85,SSE,151,6.9,7.8,38,0.00,,---,0.00,VWS V14.01,2013-07-29 20:18:00,
2013-07-29 22:23:00,87.8,53.4,29.85,SSW,205,8.3,13.4,31,0.00,,---,0.00,VWS V14.01,2013-07-29 20:23:00,
2013-07-29 22:28:00,87.6,52.4,29.85,SW,232,6.3,19.5,30,0.00,,---,0.00,VWS V14.01,2013-07-29 20:28:00,
2013-07-29 22:33:00,87.6,51.5,29.85,SSE,150,4.5,7.8,29,0.00,,---,0.00,VWS V14.01,2013-07-29 20:33:00,
2013-07-29 22:38:00,87.4,50.4,29.85,South,178,8.3,8.7,28,0.00,,---,0.00,VWS V14.01,2013-07-29 20:38:00,
2013-07-29 22:43:00,87.3,50.2,29.85,South,169,6.3,9.2,28,0.00,,---,0.00,VWS V14.01,2013-07-29 20:43:00,
2013-07-29 22:48:00,87.1,50.1,29.88,SE,133,6.3,9.6,28,0.00,,---,0.00,VWS V14.01,2013-07-29 20:48:00,
2013-07-29 22:53:00,87.1,49.1,29.88,West,277,5.4,10.5,27,0.00,,---,0.00,VWS V14.01,2013-07-29 20:53:00,
2013-07-29 22:58:00,87.1,48.1,29.88,West,276,9.2,9.2,26,0.00,,---,0.00,VWS V14.01,2013-07-29 20:58:00,
2013-07-29 23:03:00,86.9,48.9,29.85,SE,142,6.3,6.3,27,0.00,,---,0.00,VWS V14.01,2013-07-29 21:03:00,
2013-07-29 23:08:00,86.7,48.8,29.85,South,172,8.3,8.3,27,0.00,,---,0.00,VWS V14.01,2013-07-29 21:08:00,
2013-07-29 23:13:00,86.7,47.8,29.85,South,171,6.3,8.7,26,0.00,,---,0.00,VWS V14.01,2013-07-29 21:13:00,
2013-07-29 23:19:00,86.5,47.6,29.85,West,270,10.1,11.6,26,0.00,,---,0.00,VWS V14.01,2013-07-29 21:19:00,
2013-07-29 23:24:00,86.4,47.5,29.85,SSE,163,3.1,7.4,26,0.00,,---,0.00,VWS V14.01,2013-07-29 21:24:00,
2013-07-29 23:29:00,86.4,47.5,29.85,SSE,160,4.0,7.4,26,0.00,,---,0.00,VWS V14.01,2013-07-29 21:29:00,
2013-07-29 23:34:00,86.0,47.2,29.88,West,262,3.6,8.3,26,0.00,,---,0.00,VWS V14.01,2013-07-29 21:34:00,
2013-07-29 23:39:00,85.8,48.0,29.88,WNW,283,5.4,6.9,27,0.00,,---,0.00,VWS V14.01,2013-07-29 21:39:00,
2013-07-29 23:44:00,85.6,47.9,29.88,WNW,288,4.9,11.2,27,0.00,,---,0.00,VWS V14.01,2013-07-29 21:44:00,
2013-07-29 23:49:00,85.5,48.7,29.88,West,277,0.0,2.7,28,0.00,,---,0.00,VWS V14.01,2013-07-29 21:49:00,
2013-07-29 23:54:00,85.3,48.5,29.88,West,259,2.7,3.6,28,0.00,,---,0.00,VWS V14.01,2013-07-29 21:54:00,
2013-07-29 23:59:00,84.9,48.2,29.88,West,270,0.0,0.0,28,0.00,,---,0.00,VWS V14.01,2013-07-29 21:59:00,